View from above orbital plane
|
View from above satellite
|
Ground track
|
The orbit data is extracted from the following two-line orbital elements,
1 43173U 18011E 22228.68292293 .00012119 00000-0 27907-3 0 9998
2 43173 34.9884 105.8423 0119715 8.3908 351.8779 15.34490854254375
Epoch (UTC): | 16 August 2022 16:23:24 |
Eccentricity: | 0.0119715 |
inclination: | 34.9884° |
perigee height: | 380 km |
apogee height: | 544 km |
right ascension of ascending node: | 105.8423° |
argument of perigee: | 8.3908° |
revolutions per day: | 15.34490854 |
mean anomaly at epoch: | 351.8779° |
orbit number at epoch: | 25437 |
The dashed part of the orbit path shows where the satellite is in the earth's shadow,
|
|